Time,TemperatureF,DewpointF,PressureIn,WindDirection,WindDirectionDegrees,WindSpeedMPH,WindSpeedGustMPH,Humidity,HourlyPrecipIn,Conditions,Clouds,dailyrainin,SoftwareType,DateUTC
2013-09-04 00:01:00,62.9,57.0,29.91,WNW,301,5.0,9.0,81,0.00,,,0.00,Wunderground v.1.15,2013-09-04 04:01:00,
2013-09-04 00:02:00,62.9,57.0,29.91,NW,321,5.0,9.0,81,0.00,,,0.00,Wunderground v.1.15,2013-09-04 04:02:00,
2013-09-04 00:03:00,62.9,57.0,29.91,WNW,292,5.0,9.0,81,0.00,,,0.00,Wunderground v.1.15,2013-09-04 04:03:00,
2013-09-04 00:04:00,62.9,57.0,29.91,NW,319,5.0,9.0,81,0.00,,,0.00,Wunderground v.1.15,2013-09-04 04:04:00,
2013-09-04 00:06:00,63.0,57.1,29.91,NW,326,5.0,9.0,81,0.00,,,0.00,Wunderground v.1.15,2013-09-04 04:06:00,
2013-09-04 00:12:00,63.0,57.1,29.91,NW,323,6.0,9.0,81,0.00,,,0.00,Wunderground v.1.15,2013-09-04 04:12:00,
2013-09-04 00:15:00,63.0,57.1,29.91,West,275,5.0,9.0,81,0.00,,,0.00,Wunderground v.1.15,2013-09-04 04:15:00,
2013-09-04 00:20:00,63.0,57.1,29.91,WNW,299,5.0,7.0,81,0.00,,,0.00,Wunderground v.1.15,2013-09-04 04:20:00,
2013-09-04 00:26:00,63.1,57.2,29.91,NW,304,5.0,10.0,81,0.00,,,0.00,Wunderground v.1.15,2013-09-04 04:26:00,
2013-09-04 00:31:00,63.0,57.1,29.91,North,355,5.0,6.0,81,0.00,,,0.00,Wunderground v.1.15,2013-09-04 04:31:00,
2013-09-04 00:37:00,63.0,57.1,29.92,NNW,333,5.0,8.0,81,0.00,,,0.00,Wunderground v.1.15,2013-09-04 04:37:00,
2013-09-04 00:43:00,63.0,57.1,29.92,NNW,337,4.0,7.0,81,0.00,,,0.00,Wunderground v.1.15,2013-09-04 04:43:00,
2013-09-04 00:49:00,63.0,57.1,29.92,NW,315,3.0,7.0,81,0.00,,,0.00,Wunderground v.1.15,2013-09-04 04:49:00,
2013-09-04 00:55:00,63.0,57.1,29.92,NW,308,3.0,8.0,81,0.00,,,0.00,Wunderground v.1.15,2013-09-04 04:55:00,
2013-09-04 01:00:00,63.0,57.1,29.92,NW,318,3.0,13.0,81,0.00,,,0.00,Wunderground v.1.15,2013-09-04 05:00:00,
2013-09-04 01:06:00,63.0,57.4,29.92,WNW,289,2.0,13.0,82,0.00,,,0.00,Wunderground v.1.15,2013-09-04 05:06:00,
2013-09-04 01:12:00,62.9,57.3,29.92,WNW,296,2.0,13.0,82,0.00,,,0.00,Wunderground v.1.15,2013-09-04 05:12:00,
2013-09-04 01:17:00,62.9,57.3,29.92,NW,309,3.0,13.0,82,0.00,,,0.00,Wunderground v.1.15,2013-09-04 05:17:00,
2013-09-04 01:23:00,62.8,57.2,29.92,NW,323,3.0,13.0,82,0.00,,,0.00,Wunderground v.1.15,2013-09-04 05:23:00,
2013-09-04 01:28:00,62.7,57.5,29.92,North,5,3.0,13.0,83,0.00,,,0.00,Wunderground v.1.15,2013-09-04 05:28:00,
2013-09-04 01:34:00,62.6,57.4,29.92,NNW,328,4.0,13.0,83,0.00,,,0.00,Wunderground v.1.15,2013-09-04 05:34:00,
2013-09-04 01:40:00,62.5,57.3,29.92,NNW,343,4.0,13.0,83,0.00,,,0.00,Wunderground v.1.15,2013-09-04 05:40:00,
2013-09-04 01:46:00,62.5,57.6,29.92,NNW,329,5.0,13.0,84,0.00,,,0.00,Wunderground v.1.15,2013-09-04 05:46:00,
2013-09-04 01:52:00,62.5,57.6,29.92,North,11,6.0,13.0,84,0.00,,,0.00,Wunderground v.1.15,2013-09-04 05:52:00,
2013-09-04 01:57:00,62.5,57.9,29.92,NNE,12,8.0,13.0,85,0.00,,,0.00,Wunderground v.1.15,2013-09-04 05:57:00,
2013-09-04 02:03:00,62.4,57.8,29.92,NNW,334,7.0,13.0,85,0.00,,,0.00,Wunderground v.1.15,2013-09-04 06:03:00,
2013-09-04 02:09:00,62.3,58.1,29.92,NW,306,4.0,13.0,86,0.00,,,0.00,Wunderground v.1.15,2013-09-04 06:09:00,
2013-09-04 02:15:00,62.1,58.2,29.92,NNW,333,4.0,13.0,87,0.00,,,0.00,Wunderground v.1.15,2013-09-04 06:15:00,
2013-09-04 02:20:00,61.8,57.9,29.92,WNW,300,5.0,5.0,87,0.00,,,0.00,Wunderground v.1.15,2013-09-04 06:20:00,
2013-09-04 02:26:00,61.5,57.9,29.92,NNW,334,4.0,13.0,88,0.00,,,0.00,Wunderground v.1.15,2013-09-04 06:26:00,
2013-09-04 02:32:00,61.4,57.8,29.92,NW,313,3.0,13.0,88,0.00,,,0.00,Wunderground v.1.15,2013-09-04 06:32:00,
2013-09-04 02:38:00,61.3,57.7,29.92,NW,323,3.0,13.0,88,0.00,,,0.00,Wunderground v.1.15,2013-09-04 06:38:00,
2013-09-04 02:44:00,61.3,57.7,29.92,NNW,331,2.0,13.0,88,0.00,,,0.00,Wunderground v.1.15,2013-09-04 06:44:00,
2013-09-04 02:50:00,61.3,57.7,29.92,NNW,335,3.0,3.0,88,0.00,,,0.00,Wunderground v.1.15,2013-09-04 06:50:00,
2013-09-04 02:56:00,61.5,57.9,29.92,WNW,295,2.0,13.0,88,0.00,,,0.00,Wunderground v.1.15,2013-09-04 06:56:00,
2013-09-04 03:01:00,61.6,57.7,29.92,WNW,296,2.0,13.0,87,0.00,,,0.00,Wunderground v.1.15,2013-09-04 07:01:00,
2013-09-04 03:07:00,61.8,57.9,29.92,West,276,3.0,13.0,87,0.00,,,0.00,Wunderground v.1.15,2013-09-04 07:07:00,
2013-09-04 03:13:00,61.9,57.7,29.92,NNW,330,4.0,13.0,86,0.00,,,0.00,Wunderground v.1.15,2013-09-04 07:13:00,
2013-09-04 03:19:00,62.0,57.8,29.92,NW,315,5.0,13.0,86,0.00,,,0.00,Wunderground v.1.15,2013-09-04 07:19:00,
2013-09-04 03:25:00,62.0,57.8,29.92,NW,313,6.0,13.0,86,0.00,,,0.00,Wunderground v.1.15,2013-09-04 07:25:00,
2013-09-04 03:31:00,61.8,57.6,29.92,NW,306,4.0,13.0,86,0.00,,,0.00,Wunderground v.1.15,2013-09-04 07:31:00,
2013-09-04 03:37:00,61.7,57.5,29.92,WNW,300,4.0,13.0,86,0.00,,,0.00,Wunderground v.1.15,2013-09-04 07:37:00,
2013-09-04 03:43:00,61.6,57.4,29.92,WNW,296,4.0,13.0,86,0.00,,,0.00,Wunderground v.1.15,2013-09-04 07:43:00,
2013-09-04 03:48:00,61.4,57.2,29.93,NW,319,3.0,13.0,86,0.00,,,0.00,Wunderground v.1.15,2013-09-04 07:48:00,
2013-09-04 03:54:00,61.3,57.1,29.93,NW,318,3.0,13.0,86,0.00,,,0.00,Wunderground v.1.15,2013-09-04 07:54:00,
2013-09-04 04:00:00,61.1,57.2,29.93,NW,320,2.0,13.0,87,0.00,,,0.00,Wunderground v.1.15,2013-09-04 08:00:00,
2013-09-04 04:06:00,61.0,57.1,29.93,NW,326,2.0,13.0,87,0.00,,,0.00,Wunderground v.1.15,2013-09-04 08:06:00,
2013-09-04 04:11:00,61.1,57.2,29.94,WNW,301,3.0,13.0,87,0.00,,,0.00,Wunderground v.1.15,2013-09-04 08:11:00,
2013-09-04 04:17:00,61.1,56.9,29.93,NW,319,4.0,13.0,86,0.00,,,0.00,Wunderground v.1.15,2013-09-04 08:17:00,
2013-09-04 04:23:00,61.1,56.9,29.94,NW,313,3.0,13.0,86,0.00,,,0.00,Wunderground v.1.15,2013-09-04 08:23:00,
2013-09-04 04:29:00,61.1,56.9,29.94,NW,314,3.0,13.0,86,0.00,,,0.00,Wunderground v.1.15,2013-09-04 08:29:00,
2013-09-04 04:34:00,61.1,56.9,29.94,NW,314,2.0,13.0,86,0.00,,,0.00,Wunderground v.1.15,2013-09-04 08:34:00,
2013-09-04 04:40:00,61.0,56.8,29.94,NW,314,0.0,13.0,86,0.00,,,0.00,Wunderground v.1.15,2013-09-04 08:40:00,
2013-09-04 04:46:00,60.9,56.7,29.94,NW,314,0.0,13.0,86,0.00,,,0.00,Wunderground v.1.15,2013-09-04 08:46:00,
2013-09-04 04:51:00,60.8,56.9,29.95,NW,314,0.0,13.0,87,0.00,,,0.00,Wunderground v.1.15,2013-09-04 08:51:00,
2013-09-04 04:57:00,60.4,56.5,29.95,NW,314,0.0,13.0,87,0.00,,,0.00,Wunderground v.1.15,2013-09-04 08:57:00,
2013-09-04 05:03:00,60.0,56.4,29.95,NW,314,0.0,13.0,88,0.00,,,0.00,Wunderground v.1.15,2013-09-04 09:03:00,
2013-09-04 05:09:00,59.6,56.4,29.95,NW,314,0.0,13.0,89,0.00,,,0.00,Wunderground v.1.15,2013-09-04 09:09:00,
2013-09-04 05:14:00,59.4,56.5,29.96,NW,314,0.0,13.0,90,0.00,,,0.00,Wunderground v.1.15,2013-09-04 09:14:00,
2013-09-04 05:20:00,59.2,56.3,29.96,NW,314,0.0,13.0,90,0.00,,,0.00,Wunderground v.1.15,2013-09-04 09:20:00,
2013-09-04 05:26:00,59.1,56.2,29.96,NW,314,0.0,13.0,90,0.00,,,0.00,Wunderground v.1.15,2013-09-04 09:26:00,
2013-09-04 05:32:00,59.0,56.4,29.96,NW,314,0.0,13.0,91,0.00,,,0.00,Wunderground v.1.15,2013-09-04 09:32:00,
2013-09-04 05:37:00,58.9,56.3,29.96,NW,314,0.0,13.0,91,0.00,,,0.00,Wunderground v.1.15,2013-09-04 09:37:00,
2013-09-04 05:43:00,58.8,56.2,29.96,NW,314,0.0,13.0,91,0.00,,,0.00,Wunderground v.1.15,2013-09-04 09:43:00,
2013-09-04 05:49:00,58.6,56.0,29.96,NW,314,0.0,13.0,91,0.00,,,0.00,Wunderground v.1.15,2013-09-04 09:49:00,
2013-09-04 05:54:00,58.5,55.9,29.96,NW,314,0.0,13.0,91,0.00,,,0.00,Wunderground v.1.15,2013-09-04 09:54:00,
2013-09-04 06:00:00,58.4,56.1,29.96,NW,314,0.0,13.0,92,0.00,,,0.00,Wunderground v.1.15,2013-09-04 10:00:00,
2013-09-04 06:06:00,58.4,55.8,29.96,NW,314,0.0,13.0,91,0.00,,,0.00,Wunderground v.1.15,2013-09-04 10:06:00,
2013-09-04 06:12:00,58.4,55.8,29.97,NW,314,0.0,13.0,91,0.00,,,0.00,Wunderground v.1.15,2013-09-04 10:12:00,
2013-09-04 06:17:00,58.3,55.7,29.97,NW,314,0.0,13.0,91,0.00,,,0.00,Wunderground v.1.15,2013-09-04 10:17:00,
2013-09-04 06:23:00,58.2,55.9,29.97,NW,314,0.0,13.0,92,0.00,,,0.00,Wunderground v.1.15,2013-09-04 10:23:00,
2013-09-04 06:29:00,58.4,56.1,29.97,NW,314,0.0,13.0,92,0.00,,,0.00,Wunderground v.1.15,2013-09-04 10:29:00,
2013-09-04 06:35:00,58.6,56.3,29.98,NW,314,0.0,13.0,92,0.00,,,0.00,Wunderground v.1.15,2013-09-04 10:35:00,
2013-09-04 06:40:00,58.6,56.3,29.97,NW,314,0.0,13.0,92,0.00,,,0.00,Wunderground v.1.15,2013-09-04 10:40:00,
2013-09-04 06:46:00,58.8,56.2,29.98,NW,314,0.0,13.0,91,0.00,,,0.00,Wunderground v.1.15,2013-09-04 10:46:00,
2013-09-04 06:52:00,59.0,56.4,29.98,NW,314,0.0,13.0,91,0.00,,,0.00,Wunderground v.1.15,2013-09-04 10:52:00,
2013-09-04 06:58:00,59.0,56.1,29.98,NW,314,0.0,13.0,90,0.00,,,0.00,Wunderground v.1.15,2013-09-04 10:58:00,
2013-09-04 07:04:00,59.1,56.2,29.98,NW,314,0.0,13.0,90,0.00,,,0.00,Wunderground v.1.15,2013-09-04 11:04:00,
2013-09-04 07:10:00,59.3,56.4,29.99,NW,314,0.0,13.0,90,0.00,,,0.00,Wunderground v.1.15,2013-09-04 11:10:00,
2013-09-04 07:16:00,59.4,56.5,29.99,NW,314,0.0,13.0,90,0.00,,,0.00,Wunderground v.1.15,2013-09-04 11:16:00,
2013-09-04 07:21:00,59.6,56.4,29.99,NW,314,1.0,13.0,89,0.00,,,0.00,Wunderground v.1.15,2013-09-04 11:21:00,
2013-09-04 07:27:00,60.0,56.7,29.99,NW,314,0.0,13.0,89,0.00,,,0.00,Wunderground v.1.15,2013-09-04 11:27:00,
2013-09-04 07:33:00,60.4,56.8,29.99,NW,314,0.0,13.0,88,0.00,,,0.00,Wunderground v.1.15,2013-09-04 11:33:00,
2013-09-04 07:39:00,60.7,56.8,29.99,NW,304,1.0,13.0,87,0.00,,,0.00,Wunderground v.1.15,2013-09-04 11:39:00,
2013-09-04 07:44:00,60.9,57.0,29.99,WNW,301,2.0,13.0,87,0.00,,,0.00,Wunderground v.1.15,2013-09-04 11:44:00,
2013-09-04 07:50:00,61.0,56.8,29.99,NW,316,3.0,13.0,86,0.00,,,0.00,Wunderground v.1.15,2013-09-04 11:50:00,
2013-09-04 07:56:00,61.1,56.6,29.99,NW,313,4.0,13.0,85,0.00,,,0.00,Wunderground v.1.15,2013-09-04 11:56:00,
2013-09-04 08:02:00,61.4,56.8,29.99,NNW,339,3.0,13.0,85,0.00,,,0.00,Wunderground v.1.15,2013-09-04 12:02:00,
2013-09-04 08:07:00,61.6,56.4,30.00,NW,311,4.0,13.0,83,0.00,,,0.00,Wunderground v.1.15,2013-09-04 12:07:00,
2013-09-04 08:13:00,61.9,56.3,30.00,WNW,283,5.0,13.0,82,0.00,,,0.00,Wunderground v.1.15,2013-09-04 12:13:00,
2013-09-04 08:18:00,62.2,56.3,30.00,NNW,336,5.0,13.0,81,0.00,,,0.00,Wunderground v.1.15,2013-09-04 12:18:00,
2013-09-04 08:24:00,62.5,56.6,30.00,NW,317,6.0,13.0,81,0.00,,,0.00,Wunderground v.1.15,2013-09-04 12:24:00,
2013-09-04 08:30:00,62.7,56.4,30.00,North,349,5.0,13.0,80,0.00,,,0.00,Wunderground v.1.15,2013-09-04 12:30:00,
2013-09-04 08:36:00,63.1,56.5,30.00,NNW,327,5.0,13.0,79,0.00,,,0.00,Wunderground v.1.15,2013-09-04 12:36:00,
2013-09-04 08:41:00,63.2,56.2,30.00,NW,315,7.0,13.0,78,0.00,,,0.00,Wunderground v.1.15,2013-09-04 12:41:00,
2013-09-04 08:47:00,63.6,56.6,30.00,NW,309,7.0,13.0,78,0.00,,,0.00,Wunderground v.1.15,2013-09-04 12:47:00,
2013-09-04 08:53:00,64.0,56.3,30.00,NNW,327,7.0,13.0,76,0.00,,,0.00,Wunderground v.1.15,2013-09-04 12:53:00,
2013-09-04 08:59:00,64.1,56.4,30.00,North,350,8.0,13.0,76,0.00,,,0.00,Wunderground v.1.15,2013-09-04 12:59:00,
2013-09-04 09:04:00,64.3,56.2,30.00,NW,319,7.0,13.0,75,0.00,,,0.00,Wunderground v.1.15,2013-09-04 13:04:00,
2013-09-04 09:10:00,64.7,56.6,30.00,NW,306,7.0,13.0,75,0.00,,,0.00,Wunderground v.1.15,2013-09-04 13:10:00,
2013-09-04 09:16:00,64.9,56.4,30.00,North,10,7.0,13.0,74,0.00,,,0.00,Wunderground v.1.15,2013-09-04 13:16:00,
2013-09-04 09:22:00,65.0,56.9,30.01,NNW,331,7.0,13.0,75,0.00,,,0.00,Wunderground v.1.15,2013-09-04 13:22:00,
2013-09-04 09:27:00,65.0,56.1,30.00,WNW,300,8.0,13.0,73,0.00,,,0.00,Wunderground v.1.15,2013-09-04 13:27:00,
2013-09-04 09:33:00,65.5,57.0,30.00,NW,311,7.0,16.0,74,0.00,,,0.00,Wunderground v.1.15,2013-09-04 13:33:00,
2013-09-04 09:39:00,65.4,56.1,30.00,WNW,296,8.0,16.0,72,0.00,,,0.00,Wunderground v.1.15,2013-09-04 13:39:00,
2013-09-04 09:45:00,65.9,56.2,30.00,NW,308,6.0,13.0,71,0.00,,,0.00,Wunderground v.1.15,2013-09-04 13:45:00,
2013-09-04 09:51:00,66.4,56.7,30.00,WNW,292,6.0,13.0,71,0.00,,,0.00,Wunderground v.1.15,2013-09-04 13:51:00,
2013-09-04 09:57:00,66.6,56.5,30.00,NNW,337,7.0,13.0,70,0.00,,,0.00,Wunderground v.1.15,2013-09-04 13:57:00,
2013-09-04 10:03:00,66.3,56.2,29.99,NNW,340,8.0,13.0,70,0.00,,,0.00,Wunderground v.1.15,2013-09-04 14:03:00,
2013-09-04 10:08:00,66.4,56.7,30.00,NNW,346,8.0,13.0,71,0.00,,,0.00,Wunderground v.1.15,2013-09-04 14:08:00,
2013-09-04 10:14:00,66.5,56.8,30.00,NNW,334,7.0,13.0,71,0.00,,,0.00,Wunderground v.1.15,2013-09-04 14:14:00,
2013-09-04 10:20:00,67.0,56.9,30.00,NW,304,6.0,6.0,70,0.00,,,0.00,Wunderground v.1.15,2013-09-04 14:20:00,
2013-09-04 10:26:00,67.5,56.6,30.00,NNW,336,7.0,13.0,68,0.00,,,0.00,Wunderground v.1.15,2013-09-04 14:26:00,
2013-09-04 10:31:00,67.8,56.4,29.99,NW,324,7.0,13.0,67,0.00,,,0.00,Wunderground v.1.15,2013-09-04 14:31:00,
2013-09-04 10:37:00,68.1,56.3,30.00,NW,326,7.0,13.0,66,0.00,,,0.00,Wunderground v.1.15,2013-09-04 14:37:00,
2013-09-04 10:43:00,68.5,56.3,30.00,WNW,298,7.0,13.0,65,0.00,,,0.00,Wunderground v.1.15,2013-09-04 14:43:00,
2013-09-04 10:49:00,68.6,56.4,30.00,North,350,7.0,13.0,65,0.00,,,0.00,Wunderground v.1.15,2013-09-04 14:49:00,
2013-09-04 10:55:00,68.8,57.0,29.99,WNW,296,7.0,13.0,66,0.00,,,0.00,Wunderground v.1.15,2013-09-04 14:55:00,
2013-09-04 11:01:00,68.9,55.3,30.00,West,277,8.0,13.0,62,0.00,,,0.00,Wunderground v.1.15,2013-09-04 15:01:00,
2013-09-04 11:07:00,69.4,55.8,30.00,NW,320,7.0,13.0,62,0.00,,,0.00,Wunderground v.1.15,2013-09-04 15:07:00,
2013-09-04 11:12:00,69.7,55.6,30.00,NNE,24,7.0,13.0,61,0.00,,,0.00,Wunderground v.1.15,2013-09-04 15:12:00,
2013-09-04 11:18:00,69.6,55.6,29.99,North,9,8.0,13.0,61,0.00,,,0.00,Wunderground v.1.15,2013-09-04 15:18:00,
2013-09-04 11:24:00,69.6,55.6,29.99,WNW,296,8.0,14.0,61,0.00,,,0.00,Wunderground v.1.15,2013-09-04 15:24:00,
2013-09-04 11:30:00,69.9,54.4,29.99,NNE,23,9.0,9.0,58,0.00,,,0.00,Wunderground v.1.15,2013-09-04 15:30:00,
2013-09-04 11:35:00,69.7,54.3,29.99,NNE,17,9.0,13.0,58,0.00,,,0.00,Wunderground v.1.15,2013-09-04 15:35:00,
2013-09-04 11:41:00,70.1,54.6,29.99,NW,317,8.0,13.0,58,0.00,,,0.00,Wunderground v.1.15,2013-09-04 15:41:00,
2013-09-04 11:47:00,70.3,54.3,29.99,NNE,13,8.0,14.0,57,0.00,,,0.00,Wunderground v.1.15,2013-09-04 15:47:00,
2013-09-04 11:53:00,70.6,54.1,29.99,North,349,9.0,13.0,56,0.00,,,0.00,Wunderground v.1.15,2013-09-04 15:53:00,
2013-09-04 11:59:00,71.2,52.7,29.99,NNW,327,8.0,13.0,52,0.00,,,0.00,Wunderground v.1.15,2013-09-04 15:59:00,
2013-09-04 12:05:00,71.8,53.2,29.99,West,272,8.0,13.0,52,0.00,,,0.00,Wunderground v.1.15,2013-09-04 16:05:00,
2013-09-04 12:11:00,72.1,53.5,29.99,West,271,8.0,20.0,52,0.00,,,0.00,Wunderground v.1.15,2013-09-04 16:11:00,
2013-09-04 12:16:00,72.3,53.7,29.99,NNW,339,8.0,20.0,52,0.00,,,0.00,Wunderground v.1.15,2013-09-04 16:16:00,
2013-09-04 12:22:00,72.4,52.7,29.99,WNW,300,9.0,13.0,50,0.00,,,0.00,Wunderground v.1.15,2013-09-04 16:22:00,
2013-09-04 12:28:00,72.5,53.9,29.99,NW,311,9.0,13.0,52,0.00,,,0.00,Wunderground v.1.15,2013-09-04 16:28:00,
2013-09-04 12:34:00,73.0,53.8,29.99,North,5,8.0,13.0,51,0.00,,,0.00,Wunderground v.1.15,2013-09-04 16:34:00,
2013-09-04 12:39:00,73.0,53.3,29.99,WNW,291,8.0,13.0,50,0.00,,,0.00,Wunderground v.1.15,2013-09-04 16:39:00,
2013-09-04 12:45:00,72.9,54.2,29.98,NNW,335,8.0,13.0,52,0.00,,,0.00,Wunderground v.1.15,2013-09-04 16:45:00,
2013-09-04 12:51:00,72.8,53.6,29.98,WNW,288,8.0,13.0,51,0.00,,,0.00,Wunderground v.1.15,2013-09-04 16:51:00,
2013-09-04 12:57:00,73.1,54.9,29.98,NNW,329,8.0,13.0,53,0.00,,,0.00,Wunderground v.1.15,2013-09-04 16:57:00,
2013-09-04 13:03:00,73.4,55.2,29.99,NNW,327,7.0,13.0,53,0.00,,,0.00,Wunderground v.1.15,2013-09-04 17:03:00,
2013-09-04 13:09:00,73.8,55.1,29.99,North,5,8.0,13.0,52,0.00,,,0.00,Wunderground v.1.15,2013-09-04 17:09:00,
2013-09-04 13:15:00,73.9,56.2,29.98,NW,322,7.0,13.0,54,0.00,,,0.00,Wunderground v.1.15,2013-09-04 17:15:00,
2013-09-04 13:20:00,73.8,55.6,29.98,NNW,339,7.0,7.0,53,0.00,,,0.00,Wunderground v.1.15,2013-09-04 17:20:00,
2013-09-04 13:26:00,74.4,56.7,29.98,NW,323,6.0,13.0,54,0.00,,,0.00,Wunderground v.1.15,2013-09-04 17:26:00,
2013-09-04 13:32:00,74.3,56.1,29.98,WNW,303,7.0,13.0,53,0.00,,,0.00,Wunderground v.1.15,2013-09-04 17:32:00,
2013-09-04 13:38:00,74.7,57.5,29.98,West,279,7.0,13.0,55,0.00,,,0.00,Wunderground v.1.15,2013-09-04 17:38:00,
2013-09-04 13:43:00,75.0,56.7,29.98,NW,304,7.0,13.0,53,0.00,,,0.00,Wunderground v.1.15,2013-09-04 17:43:00,
2013-09-04 13:49:00,75.1,56.8,29.98,NW,306,7.0,15.0,53,0.00,,,0.00,Wunderground v.1.15,2013-09-04 17:49:00,
2013-09-04 13:55:00,74.8,56.5,29.98,West,275,9.0,13.0,53,0.00,,,0.00,Wunderground v.1.15,2013-09-04 17:55:00,
2013-09-04 14:01:00,75.1,56.8,29.97,West,269,8.0,13.0,53,0.00,,,0.00,Wunderground v.1.15,2013-09-04 18:01:00,
2013-09-04 14:07:00,75.5,56.6,29.97,WNW,286,7.0,13.0,52,0.00,,,0.00,Wunderground v.1.15,2013-09-04 18:07:00,
2013-09-04 14:13:00,75.8,56.4,29.98,NNW,330,8.0,13.0,51,0.00,,,0.00,Wunderground v.1.15,2013-09-04 18:13:00,
2013-09-04 14:19:00,75.9,55.9,29.97,WNW,286,8.0,13.0,50,0.00,,,0.00,Wunderground v.1.15,2013-09-04 18:19:00,
2013-09-04 14:24:00,75.7,54.6,29.97,WNW,293,8.0,18.0,48,0.00,,,0.00,Wunderground v.1.15,2013-09-04 18:24:00,
2013-09-04 14:30:00,75.9,54.2,29.97,North,350,9.0,13.0,47,0.00,,,0.00,Wunderground v.1.15,2013-09-04 18:30:00,
2013-09-04 14:36:00,75.8,54.1,29.97,NW,315,8.0,13.0,47,0.00,,,0.00,Wunderground v.1.15,2013-09-04 18:36:00,
2013-09-04 14:42:00,75.7,53.4,29.98,West,273,8.0,13.0,46,0.00,,,0.00,Wunderground v.1.15,2013-09-04 18:42:00,
2013-09-04 14:47:00,75.7,53.4,29.97,NNW,342,8.0,13.0,46,0.00,,,0.00,Wunderground v.1.15,2013-09-04 18:47:00,
2013-09-04 14:53:00,75.9,54.2,29.97,WNW,302,7.0,13.0,47,0.00,,,0.00,Wunderground v.1.15,2013-09-04 18:53:00,
2013-09-04 14:59:00,76.2,52.7,29.97,WNW,300,7.0,15.0,44,0.00,,,0.00,Wunderground v.1.15,2013-09-04 18:59:00,
2013-09-04 15:05:00,76.2,52.1,29.97,North,351,8.0,13.0,43,0.00,,,0.00,Wunderground v.1.15,2013-09-04 19:05:00,
2013-09-04 15:10:00,76.4,52.9,29.97,North,9,8.0,13.0,44,0.00,,,0.00,Wunderground v.1.15,2013-09-04 19:10:00,
2013-09-04 15:16:00,76.2,53.3,29.97,NNW,335,7.0,13.0,45,0.00,,,0.00,Wunderground v.1.15,2013-09-04 19:16:00,
2013-09-04 15:22:00,75.7,52.8,29.97,North,11,8.0,13.0,45,0.00,,,0.00,Wunderground v.1.15,2013-09-04 19:22:00,
2013-09-04 15:27:00,75.3,53.1,29.97,NNW,333,9.0,13.0,46,0.00,,,0.00,Wunderground v.1.15,2013-09-04 19:27:00,
2013-09-04 15:33:00,76.0,54.3,29.96,NW,325,8.0,13.0,47,0.00,,,0.00,Wunderground v.1.15,2013-09-04 19:33:00,
2013-09-04 15:38:00,76.8,53.2,29.97,NW,317,7.0,13.0,44,0.00,,,0.00,Wunderground v.1.15,2013-09-04 19:38:00,
2013-09-04 15:43:00,76.4,53.5,29.97,North,355,8.0,13.0,45,0.00,,,0.00,Wunderground v.1.15,2013-09-04 19:43:00,
2013-09-04 15:48:00,76.3,53.4,29.96,NNE,15,8.0,16.0,45,0.00,,,0.00,Wunderground v.1.15,2013-09-04 19:48:00,
2013-09-04 15:54:00,76.2,53.3,29.96,NNE,15,7.0,13.0,45,0.00,,,0.00,Wunderground v.1.15,2013-09-04 19:54:00,
2013-09-04 15:59:00,76.0,53.7,29.96,NNW,348,7.0,13.0,46,0.00,,,0.00,Wunderground v.1.15,2013-09-04 19:59:00,
2013-09-04 16:04:00,76.2,53.9,29.96,NNW,343,6.0,13.0,46,0.00,,,0.00,Wunderground v.1.15,2013-09-04 20:04:00,
2013-09-04 16:10:00,76.2,53.9,29.96,NW,311,7.0,13.0,46,0.00,,,0.00,Wunderground v.1.15,2013-09-04 20:10:00,
2013-09-04 16:15:00,76.5,54.2,29.96,NW,313,6.0,13.0,46,0.00,,,0.00,Wunderground v.1.15,2013-09-04 20:15:00,
2013-09-04 16:20:00,76.9,55.1,29.96,WNW,296,5.0,5.0,47,0.00,,,0.00,Wunderground v.1.15,2013-09-04 20:20:00,
2013-09-04 16:25:00,76.7,54.4,29.96,NNW,343,5.0,13.0,46,0.00,,,0.00,Wunderground v.1.15,2013-09-04 20:25:00,
2013-09-04 16:31:00,76.8,55.0,29.96,NNE,26,5.0,8.0,47,0.00,,,0.00,Wunderground v.1.15,2013-09-04 20:31:00,
2013-09-04 16:36:00,76.7,55.5,29.96,West,260,5.0,13.0,48,0.00,,,0.00,Wunderground v.1.15,2013-09-04 20:36:00,
2013-09-04 16:41:00,77.1,55.9,29.96,NNW,347,5.0,13.0,48,0.00,,,0.00,Wunderground v.1.15,2013-09-04 20:41:00,
2013-09-04 16:46:00,77.3,56.1,29.96,NNW,333,4.0,13.0,48,0.00,,,0.00,Wunderground v.1.15,2013-09-04 20:46:00,
2013-09-04 16:51:00,77.3,56.1,29.96,WNW,298,4.0,13.0,48,0.00,,,0.00,Wunderground v.1.15,2013-09-04 20:51:00,
2013-09-04 16:57:00,77.2,56.0,29.96,North,11,4.0,13.0,48,0.00,,,0.00,Wunderground v.1.15,2013-09-04 20:57:00,
2013-09-04 17:03:00,76.5,56.5,29.96,NNE,15,5.0,13.0,50,0.00,,,0.00,Wunderground v.1.15,2013-09-04 21:03:00,
2013-09-04 17:08:00,76.5,55.9,29.96,NNE,17,6.0,13.0,49,0.00,,,0.00,Wunderground v.1.15,2013-09-04 21:08:00,
2013-09-04 17:13:00,76.1,56.1,29.96,NNE,19,6.0,13.0,50,0.00,,,0.00,Wunderground v.1.15,2013-09-04 21:13:00,
2013-09-04 17:19:00,76.2,56.2,29.96,North,5,5.0,13.0,50,0.00,,,0.00,Wunderground v.1.15,2013-09-04 21:19:00,
2013-09-04 17:24:00,76.0,56.0,29.96,NNW,341,6.0,13.0,50,0.00,,,0.00,Wunderground v.1.15,2013-09-04 21:24:00,
2013-09-04 17:30:00,76.1,56.1,29.95,WNW,303,6.0,6.0,50,0.00,,,0.00,Wunderground v.1.15,2013-09-04 21:30:00,
2013-09-04 17:35:00,76.4,54.7,29.96,North,355,6.0,13.0,47,0.00,,,0.00,Wunderground v.1.15,2013-09-04 21:35:00,
2013-09-04 17:40:00,76.2,55.1,29.96,NW,308,6.0,6.0,48,0.00,,,0.00,Wunderground v.1.15,2013-09-04 21:40:00,
2013-09-04 17:46:00,76.3,55.7,29.96,WNW,302,5.0,13.0,49,0.00,,,0.00,Wunderground v.1.15,2013-09-04 21:46:00,
2013-09-04 17:51:00,76.2,55.6,29.96,NW,306,5.0,13.0,49,0.00,,,0.00,Wunderground v.1.15,2013-09-04 21:51:00,
2013-09-04 17:56:00,75.9,54.8,29.96,West,281,6.0,13.0,48,0.00,,,0.00,Wunderground v.1.15,2013-09-04 21:56:00,
2013-09-04 18:01:00,75.7,54.0,29.96,NNW,337,6.0,10.0,47,0.00,,,0.00,Wunderground v.1.15,2013-09-04 22:01:00,
2013-09-04 18:07:00,75.4,53.8,29.96,NW,325,6.0,13.0,47,0.00,,,0.00,Wunderground v.1.15,2013-09-04 22:07:00,
2013-09-04 18:12:00,75.3,54.3,29.96,NW,318,6.0,13.0,48,0.00,,,0.00,Wunderground v.1.15,2013-09-04 22:12:00,
2013-09-04 18:17:00,75.3,54.3,29.96,West,279,5.0,13.0,48,0.00,,,0.00,Wunderground v.1.15,2013-09-04 22:17:00,
2013-09-04 18:23:00,75.1,54.1,29.96,WNW,292,5.0,13.0,48,0.00,,,0.00,Wunderground v.1.15,2013-09-04 22:23:00,
2013-09-04 18:28:00,74.9,54.4,29.96,WNW,288,4.0,13.0,49,0.00,,,0.00,Wunderground v.1.15,2013-09-04 22:28:00,
2013-09-04 18:33:00,74.7,54.3,29.95,NW,309,5.0,13.0,49,0.00,,,0.00,Wunderground v.1.15,2013-09-04 22:33:00,
2013-09-04 18:38:00,74.5,54.6,29.96,WNW,293,4.0,13.0,50,0.00,,,0.00,Wunderground v.1.15,2013-09-04 22:38:00,
2013-09-04 18:43:00,74.2,54.9,29.96,WNW,302,4.0,13.0,51,0.00,,,0.00,Wunderground v.1.15,2013-09-04 22:43:00,
2013-09-04 18:49:00,73.8,55.1,29.95,WNW,302,4.0,13.0,52,0.00,,,0.00,Wunderground v.1.15,2013-09-04 22:49:00,
2013-09-04 18:54:00,73.6,55.4,29.95,WNW,302,3.0,13.0,53,0.00,,,0.00,Wunderground v.1.15,2013-09-04 22:54:00,
2013-09-04 19:00:00,73.1,56.0,29.95,WNW,302,2.0,2.0,55,0.00,,,0.00,Wunderground v.1.15,2013-09-04 23:00:00,
2013-09-04 19:05:00,72.6,57.0,29.96,WNW,302,1.0,13.0,58,0.00,,,0.00,Wunderground v.1.15,2013-09-04 23:05:00,
2013-09-04 19:10:00,71.8,56.2,29.96,WNW,302,0.0,13.0,58,0.00,,,0.00,Wunderground v.1.15,2013-09-04 23:10:00,
2013-09-04 19:16:00,71.0,56.9,29.96,WNW,302,0.0,13.0,61,0.00,,,0.00,Wunderground v.1.15,2013-09-04 23:16:00,
2013-09-04 19:22:00,69.9,56.7,29.96,WNW,302,0.0,13.0,63,0.00,,,0.00,Wunderground v.1.15,2013-09-04 23:22:00,
2013-09-04 19:27:00,69.0,57.2,29.96,WNW,302,0.0,13.0,66,0.00,,,0.00,Wunderground v.1.15,2013-09-04 23:27:00,
2013-09-04 19:33:00,68.1,56.7,29.97,WNW,302,0.0,13.0,67,0.00,,,0.00,Wunderground v.1.15,2013-09-04 23:33:00,
2013-09-04 19:38:00,67.4,56.9,29.97,WNW,302,0.0,13.0,69,0.00,,,0.00,Wunderground v.1.15,2013-09-04 23:38:00,
2013-09-04 19:43:00,66.8,57.1,29.97,WNW,302,0.0,13.0,71,0.00,,,0.00,Wunderground v.1.15,2013-09-04 23:43:00,
2013-09-04 19:48:00,66.1,56.8,29.97,WNW,302,0.0,13.0,72,0.00,,,0.00,Wunderground v.1.15,2013-09-04 23:48:00,
2013-09-04 19:53:00,65.5,56.6,29.97,WNW,302,0.0,13.0,73,0.00,,,0.00,Wunderground v.1.15,2013-09-04 23:53:00,
2013-09-04 19:58:00,64.8,56.7,29.97,WNW,302,0.0,13.0,75,0.00,,,0.00,Wunderground v.1.15,2013-09-04 23:58:00,
2013-09-04 20:04:00,64.3,56.6,29.97,WNW,302,0.0,13.0,76,0.00,,,0.00,Wunderground v.1.15,2013-09-05 00:04:00,
2013-09-04 20:09:00,63.8,56.8,29.97,WNW,302,0.0,13.0,78,0.00,,,0.00,Wunderground v.1.15,2013-09-05 00:09:00,
2013-09-04 20:14:00,63.3,56.7,29.97,WNW,302,0.0,13.0,79,0.00,,,0.00,Wunderground v.1.15,2013-09-05 00:14:00,
2013-09-04 20:19:00,62.9,56.6,29.98,WNW,302,0.0,13.0,80,0.00,,,0.00,Wunderground v.1.15,2013-09-05 00:19:00,
2013-09-04 20:25:00,62.4,56.5,29.98,WNW,302,0.0,13.0,81,0.00,,,0.00,Wunderground v.1.15,2013-09-05 00:25:00,
2013-09-04 20:30:00,62.2,56.3,29.97,WNW,302,0.0,13.0,81,0.00,,,0.00,Wunderground v.1.15,2013-09-05 00:30:00,
2013-09-04 20:35:00,62.0,56.4,29.98,WNW,302,0.0,13.0,82,0.00,,,0.00,Wunderground v.1.15,2013-09-05 00:35:00,
2013-09-04 20:40:00,61.6,56.4,29.98,WNW,302,0.0,13.0,83,0.00,,,0.00,Wunderground v.1.15,2013-09-05 00:40:00,
2013-09-04 20:45:00,61.3,56.4,29.98,WNW,302,0.0,13.0,84,0.00,,,0.00,Wunderground v.1.15,2013-09-05 00:45:00,
2013-09-04 20:50:00,60.9,56.0,29.98,WNW,302,0.0,13.0,84,0.00,,,0.00,Wunderground v.1.15,2013-09-05 00:50:00,
2013-09-04 20:56:00,60.6,56.1,29.99,WNW,302,0.0,13.0,85,0.00,,,0.00,Wunderground v.1.15,2013-09-05 00:56:00,
2013-09-04 21:01:00,60.4,55.9,29.99,WNW,302,0.0,13.0,85,0.00,,,0.00,Wunderground v.1.15,2013-09-05 01:01:00,
2013-09-04 21:06:00,60.1,55.9,29.99,WNW,302,0.0,13.0,86,0.00,,,0.00,Wunderground v.1.15,2013-09-05 01:06:00,
2013-09-04 21:12:00,59.9,56.0,29.99,WNW,302,0.0,13.0,87,0.00,,,0.00,Wunderground v.1.15,2013-09-05 01:12:00,
2013-09-04 21:17:00,59.9,56.0,29.99,WNW,302,0.0,13.0,87,0.00,,,0.00,Wunderground v.1.15,2013-09-05 01:17:00,
2013-09-04 21:22:00,59.9,56.3,29.99,WNW,302,0.0,13.0,88,0.00,,,0.00,Wunderground v.1.15,2013-09-05 01:22:00,
2013-09-04 21:28:00,59.9,56.3,29.99,WNW,302,0.0,13.0,88,0.00,,,0.00,Wunderground v.1.15,2013-09-05 01:28:00,
2013-09-04 21:33:00,59.6,56.0,29.98,WNW,302,0.0,13.0,88,0.00,,,0.00,Wunderground v.1.15,2013-09-05 01:33:00,
2013-09-04 21:39:00,59.4,56.2,29.98,WNW,302,0.0,13.0,89,0.00,,,0.00,Wunderground v.1.15,2013-09-05 01:39:00,
2013-09-04 21:44:00,59.2,56.0,29.98,WNW,302,0.0,13.0,89,0.00,,,0.00,Wunderground v.1.15,2013-09-05 01:44:00,
2013-09-04 21:49:00,58.7,55.5,29.98,WNW,302,0.0,13.0,89,0.00,,,0.00,Wunderground v.1.15,2013-09-05 01:49:00,
2013-09-04 21:55:00,58.4,55.5,29.98,WNW,302,0.0,13.0,90,0.00,,,0.00,Wunderground v.1.15,2013-09-05 01:55:00,
2013-09-04 22:00:00,58.2,55.6,29.99,WNW,302,0.0,13.0,91,0.00,,,0.00,Wunderground v.1.15,2013-09-05 02:00:00,
2013-09-04 22:05:00,58.1,55.8,29.99,WNW,302,0.0,13.0,92,0.00,,,0.00,Wunderground v.1.15,2013-09-05 02:05:00,
2013-09-04 22:10:00,58.1,55.8,29.99,WNW,302,0.0,13.0,92,0.00,,,0.00,Wunderground v.1.15,2013-09-05 02:10:00,
2013-09-04 22:15:00,57.9,55.6,29.98,WNW,302,0.0,13.0,92,0.00,,,0.00,Wunderground v.1.15,2013-09-05 02:15:00,
2013-09-04 22:21:00,57.8,55.5,29.98,WNW,302,0.0,13.0,92,0.00,,,0.00,Wunderground v.1.15,2013-09-05 02:21:00,
2013-09-04 22:26:00,57.7,55.4,29.98,WNW,302,0.0,13.0,92,0.00,,,0.00,Wunderground v.1.15,2013-09-05 02:26:00,
2013-09-04 22:31:00,57.6,55.6,29.98,WNW,302,0.0,13.0,93,0.00,,,0.00,Wunderground v.1.15,2013-09-05 02:31:00,
2013-09-04 22:36:00,57.6,55.6,29.98,WNW,302,0.0,13.0,93,0.00,,,0.00,Wunderground v.1.15,2013-09-05 02:36:00,
2013-09-04 22:42:00,57.6,55.6,29.98,WNW,302,0.0,13.0,93,0.00,,,0.00,Wunderground v.1.15,2013-09-05 02:42:00,
2013-09-04 22:47:00,57.6,55.6,29.98,WNW,302,0.0,13.0,93,0.00,,,0.00,Wunderground v.1.15,2013-09-05 02:47:00,
2013-09-04 22:52:00,57.5,55.5,29.98,WNW,302,0.0,13.0,93,0.00,,,0.00,Wunderground v.1.15,2013-09-05 02:52:00,
2013-09-04 22:57:00,57.4,55.4,29.98,WNW,302,0.0,13.0,93,0.00,,,0.00,Wunderground v.1.15,2013-09-05 02:57:00,
2013-09-04 23:02:00,57.4,55.7,29.98,WNW,302,0.0,13.0,94,0.00,,,0.00,Wunderground v.1.15,2013-09-05 03:02:00,
2013-09-04 23:08:00,57.3,55.6,29.98,WNW,302,0.0,13.0,94,0.00,,,0.00,Wunderground v.1.15,2013-09-05 03:08:00,
2013-09-04 23:13:00,57.1,55.1,29.98,WNW,302,0.0,13.0,93,0.00,,,0.00,Wunderground v.1.15,2013-09-05 03:13:00,
2013-09-04 23:19:00,57.0,55.0,29.98,WNW,302,0.0,13.0,93,0.00,,,0.00,Wunderground v.1.15,2013-09-05 03:19:00,
2013-09-04 23:25:00,57.0,55.3,29.98,WNW,302,0.0,13.0,94,0.00,,,0.00,Wunderground v.1.15,2013-09-05 03:25:00,
2013-09-04 23:31:00,57.0,55.3,29.98,WNW,302,0.0,13.0,94,0.00,,,0.00,Wunderground v.1.15,2013-09-05 03:31:00,
2013-09-04 23:36:00,57.0,55.3,29.98,WNW,302,0.0,13.0,94,0.00,,,0.00,Wunderground v.1.15,2013-09-05 03:36:00,
2013-09-04 23:41:00,57.1,55.7,29.98,WNW,302,0.0,13.0,95,0.00,,,0.00,Wunderground v.1.15,2013-09-05 03:41:00,
2013-09-04 23:46:00,57.2,55.5,29.97,WNW,302,0.0,13.0,94,0.00,,,0.00,Wunderground v.1.15,2013-09-05 03:46:00,
2013-09-04 23:52:00,57.4,55.7,29.97,WNW,302,0.0,13.0,94,0.00,,,0.00,Wunderground v.1.15,2013-09-05 03:52:00,
2013-09-04 23:57:00,57.4,55.7,29.97,WNW,302,0.0,13.0,94,0.00,,,0.00,Wunderground v.1.15,2013-09-05 03:57:00,